Back to catalog

FENGYUN 1C DEB

AliveSSO
NORAD 30140·DEBRIS·🇨🇳 China

Launched May 10, 1999 from Taiyuan Satellite Launch Center

Loading…

Next Passes (next 24 hours)

TLE

FreshSource: Space-Track

Epoch: Sep 14, 2026, 11:11 UTC

1 30140U 99025SV  26257.46604264  .00001485  00000-0  68479-3 0  9992
2 30140  98.8075 324.9705 0040179 236.9800 191.0786 14.22141408 10501

Track FENGYUN 1C DEB in real time with AllMySat

Download on the App Store